Regional Weather Roundup
Issued by NWS

Home | Current Version | Previous Version | Graphics & Text | Print | Product List | Glossary On
Versions: 1 2 3 4 5 6 7 8 9 10 11 12 13 14 15 16 17 18 19 20 21 22 23 24 25 26 27 28 29 30 31 32 33 34 35 36 37 38 39 40 41 42 43 44 45 46 47 48 49 50
000
ASUS44 KMEG 272100
RWRTN
TENNESSEE HOURLY STATE WEATHER ROUNDUP
NATIONAL WEATHER SERVICE MEMPHIS TN
400 PM CDT MON APR 27 2015

TNZ002-004-019-021-049-052-054-088>092-272200-
WEST TENNESSEE

CITY           SKY/WX    TMP DP  RH WIND       PRES   REMARKS
MEMPHIS INTL   MOSUNNY   68  41  37 E17G25    29.93F
NWS MEMPHIS      N/A     66 N/A N/A MISG        N/A
JACKSON        MOSUNNY   65  41  41 NE12G23   29.95F
DYERSBURG      SUNNY     66  34  30 NE17G24   29.98F
UNION CITY     SUNNY     63  32  31 N15       29.97F
PARIS          SUNNY     63  37  39 NE13      29.98F
LEXINGTON      SUNNY     66  37  34 NE9       29.94F
SAVANNAH       SUNNY     68  32  26 NE8       29.94F
$$

TNZ008-025-027-028-033-062-065-066-272200-
NORTH MIDDLE TENNESSEE

CITY           SKY/WX    TMP DP  RH WIND       PRES   REMARKS
NASHVILLE      MOSUNNY   67  38  34 N8        29.95F
CLARKSVILLE    SUNNY     66  36  32 N14       29.97F
COOKEVILLE     SUNNY     64  39  39 NE7       29.92F
CROSSVILLE     PTSUNNY   63  34  33 N10G16    29.93F
$$

TNZ061-075-076-078-094-096-097-272200-
SOUTH MIDDLE TENNESSEE

CITY           SKY/WX    TMP DP  RH WIND       PRES   REMARKS
FAYETTEVILLE     N/A     63  37  39 N10       29.93S
TULLAHOMA      SUNNY     63  36  36 N7        29.93F
WINCHESTER     SUNNY     63  39  42 N8        29.93F
COLUMBIA       SUNNY     66  32  28 E9        29.92F
SHELBYVILLE    SUNNY     64  43  45 N12       29.94F
$$

TNZ017-018-042-046-047-272200-
NORTHEAST TENNESSEE

CITY           SKY/WX    TMP DP  RH WIND       PRES   REMARKS
TRI CITIES     PTSUNNY   63  31  30 VRB7      29.90F
ELIZABETHTON   PTCLDY    57  30  35 NW9       29.90S
$$

TNZ012-013-036-069-073-074-272200-
CENTRAL EAST TENNESSEE

CITY           SKY/WX    TMP DP  RH WIND       PRES   REMARKS
KNOXVILLE      PTSUNNY   64  35  34 N8        29.90F
OAK RIDGE      SUNNY     67  35  30 VRB5      29.92F
GATLINBURG     CLEAR     63  36  36 VRB7      29.91S
$$

TNZ083-085-099-272200-
SOUTHEAST TENNESSEE

CITY           SKY/WX    TMP DP  RH WIND       PRES   REMARKS
CHATTANOOGA    CLOUDY    67  37  33 NE8       29.89F
$$

SKY/WX REPORTED AS FAIR MEANS FEW OR NO CLOUDS BELOW
12 THOUSAND FEET.




USA.gov is the U.S. government's official web portal to all federal, state and local government web resources and services.